Flag Weather past 2 weeks in Leinfelden-Echterdingen, Baden-Württemberg, Germany

Now
55 °F

Sunny.


Feels Like: 55 °F
Forecast: 44 / 56 °F
Wind: 2 mph from East

Location: Stuttgart-Echterdingen

Current Time: Nov 22, 2014 at 3:44:55 PM

Latest Report: Nov 22, 2014 at 3:20 PM


Visibility: 10 mi

Pressure: 30.12 "Hg

Humidity: 72%

Dew point: 46 °F

Location of Leinfelden-EchterdingenLocation

Historic Weather in Leinfelden-Echterdingen — Graph

°F

Leinfelden-Echterdingen temperature yesterday

Maximum temperature yesterday: 46 °F (at 1:50 PM)
Minimum temperature yesterday: 37 °F (at 2:50 AM)
Average temperature yesterday: 42 °F

Past Weeks' High & Low Weather Summary

 TemperatureHumidityPressure
High57 °F (Nov 22, 2:20 PM)100% (Nov 8, 5:20 AM)30.30 "Hg (Nov 8, 5:20 AM)
Low34 °F (Nov 9, 7:50 AM)55% (Nov 8, 2:50 PM)29.53 "Hg (Nov 15, 10:20 PM)
Average45 °F91%29.86 "Hg
* Reported Nov 7 2:20 PM — Nov 22 2:50 PM, Leinfelden-Echterdingen, Weather by CustomWeather, © 2014

Note: Actual official high and low records may vary slightly from our data, if they occured in-between our weather recording intervals... More about our weather records

Advertising

Leinfelden-Echterdingen weather history for previous 24 hours

 ConditionsComfort  
Time TempWeatherWind HumidityBarometerVisibility
2:50 PM
Nov 22
55 °FSunny.2 mph72%30.12 "Hg10 mi
2:20 PM57 °FSunny.3 mph72%30.12 "Hg10 mi
1:50 PM55 °FSunny.2 mph72%30.12 "Hg10 mi
1:20 PM55 °FSunny.2 mph72%30.15 "Hg10 mi
12:50 PM55 °FSunny.3 mph72%30.15 "Hg10 mi
12:20 PM52 °FSunny.2 mph82%30.15 "Hg10 mi
11:50 AM54 °FSunny.2 mph77%30.15 "Hg10 mi
11:20 AM52 °FSunny.1 mph82%30.15 "Hg10 mi
10:50 AM50 °FSunny.1 mph82%30.15 "Hg10 mi
10:20 AM48 °FSunny.1 mph82%30.15 "Hg10 mi
9:50 AM46 °FClear.1 mph93%30.15 "Hg6 mi
9:20 AM43 °FClear.1 mph100%30.15 "Hg6 mi
8:50 AM43 °FFog.2 mph100%30.15 "Hg4 mi
8:20 AM41 °FSleet. Fog.1 mph100%30.15 "Hg6 mi
7:50 AM43 °FBroken clouds.2 mph93%30.15 "Hg4 mi
7:20 AM41 °FClear.1 mph100%30.15 "Hg4 mi
6:50 AM41 °FLight fog.2 mph100%30.12 "Hg5 mi
6:20 AM41 °FPartly cloudy.2 mph100%30.12 "Hg5 mi
5:50 AM41 °FPartly cloudy.3 mph93%30.12 "Hg4 mi
5:20 AM41 °FClear.2 mph100%30.12 "Hg10 mi
4:50 AM43 °FClear.1 mph93%30.12 "Hg10 mi
4:20 AM43 °FClear.1 mph93%30.12 "Hg10 mi
3:50 AM43 °FClear.2 mph93%30.12 "Hg10 mi
3:20 AM43 °FClear.1 mph93%30.12 "Hg10 mi
2:50 AM43 °FClear.1 mph93%30.12 "Hg10 mi
2:20 AM43 °FClear.1 mph93%30.12 "Hg10 mi
1:50 AM43 °FClear.1 mph93%30.12 "Hg10 mi
1:20 AM41 °FClear.1 mph100%30.12 "Hg10 mi
12:50 AM41 °FClear.2 mph93%30.12 "Hg10 mi
12:20 AM41 °FClear.2 mph100%30.12 "Hg10 mi
11:50 PM
Nov 21
41 °FClear.1 mph100%30.15 "Hg10 mi
11:20 PM41 °FClear.1 mph93%30.12 "Hg10 mi
10:20 PM43 °FClear.2 mph93%30.12 "Hg10 mi
9:50 PM43 °FClear.1 mph93%30.15 "Hg10 mi
9:20 PM43 °FClear.1 mph93%30.15 "Hg10 mi
8:50 PM43 °FClear.2 mph87%30.15 "Hg10 mi
8:20 PM43 °FClear.1 mph93%30.15 "Hg10 mi
7:50 PM43 °FClear.2 mph93%30.12 "Hg10 mi
7:20 PM43 °FClear.3 mph93%30.12 "Hg10 mi
6:50 PM43 °FClear.1 mph93%30.12 "Hg10 mi
6:20 PM43 °FLight rain. Partly cloudy.2 mph93%30.12 "HgN/A
5:50 PM43 °FLight rain. Partly cloudy.3 mph93%30.12 "HgN/A
5:20 PM43 °FClear.3 mph93%30.12 "Hg10 mi
4:50 PM45 °FClear.5 mph87%30.12 "Hg6 mi
4:20 PM45 °FClear.5 mph87%30.15 "Hg6 mi
3:50 PM45 °FSunny.5 mph87%30.12 "Hg10 mi
3:20 PM45 °FLight rain. Clear.5 mph87%30.15 "HgN/A
Weather by CustomWeather, © 2014

See weather overviewHow to use our weather pages